Location: Cleveland
(41.4990°N, 81.6960°W)
Time: 22:02:42
(UTC-04:00)

ISS - Pass Details

Date: 25 September 2021
Orbit: 417 x 423 km, 51.6° (Epoch: 24 October)

Event Time Altitude Azimuth Distance (km) Brightness Sun altitude
Rises 21:57:14 0° 308° (NW) 2,366 1.2 -29.6°
Reaches altitude 10° 21:59:43 10° 326° (NNW) 1,502 -0.2 -30.0°
Enters shadow 22:00:03 12° 330° (NNW) 1,405 -0.5 -30.0°
